Tracking 26894 objects as of 1-Feb-2023
HD Live streaming from Space Station
objects crossing your sky now

SCOUT B DEB

Track SCOUT B DEB now!
10-day predictions


NORAD ID: 29168
Int'l Code: 1965-063S
Perigee: 987.7 km
Apogee: 2,058.2 km
Inclination: 69.3 °
Period: 116.3 minutes
Semi major axis: 7893 km
RCS: 0.0859 m2 (small)
Launch date: August 10, 1965
Source: United States (US)
Launch site: WALLOPS ISLAND (WLPIS)

Note: This is SATELLITE DEBRIS
Your satellite tracking list
Your tracking list is empty




NASA's NSSDC Master Catalog

Two Line Element Set (TLE):
1 29168U 65063S   23032.56399499  .00008167  00000-0  28565-1 0  9999
2 29168  69.2792 182.1530 0678104 123.1005 315.9274 12.37829406476629
Source of the keplerian elements: AFSPC